Hourly Weather Gogolina

Today, 7 May, Friday

Time Temperature Precipitation Wind Pressure Humidity
00:00 +6°C° 0 mm 1 mps 745 mmHg 82%
01:00 +6°C° 0 mm 1 mps 745 mmHg 82%
02:00 +6°C° 0.1 mm 1 mps 744 mmHg 84%
03:00 +6°C° 0.1 mm 1 mps 744 mmHg 87%
04:00 +6°C° 0.1 mm 0 mps 744 mmHg 90%
05:00 +7°C° 0.3 mm 1 mps 744 mmHg 88%
06:00 +8°C° 0.3 mm 1 mps 744 mmHg 86%
07:00 +8°C° 0.3 mm 1 mps 744 mmHg 83%
08:00 +8°C° 0.1 mm 1 mps 744 mmHg 80%
09:00 +9°C° 0.1 mm 1 mps 744 mmHg 78%
10:00 +9°C° 0.1 mm 1 mps 744 mmHg 75%
11:00 +8°C° 0.3 mm 2 mps 745 mmHg 77%
12:00 +8°C° 0.3 mm 2 mps 745 mmHg 79%
13:00 +8°C° 0.3 mm 3 mps 745 mmHg 81%
14:00 +6°C° 1.2 mm 4 mps 745 mmHg 85%
15:00 +5°C° 1.2 mm 5 mps 746 mmHg 89%
16:00 +5°C° 1.2 mm 5 mps 746 mmHg 93%
17:00 +3°C° 0.8 mm 5 mps 747 mmHg 92%
18:00 +3°C° 0.8 mm 5 mps 748 mmHg 92%
19:00 +3°C° 0.8 mm 5 mps 748 mmHg 91%
20:00 +3°C° 0.1 mm 4 mps 749 mmHg 92%
21:00 +3°C° 0.1 mm 4 mps 749 mmHg 93%
22:00 +1°C° 0.1 mm 4 mps 750 mmHg 94%
23:00 +1°C° 0 mm 5 mps 750 mmHg 95%

Tomorrow, 8 May, Saturday

Time Temperature Precipitation Wind Pressure Humidity
00:00 +1°C° 0 mm 5 mps 751 mmHg 95%
01:00 +1°C° 0 mm 6 mps 751 mmHg 95%
02:00 +1°C° 0 mm 6 mps 751 mmHg 94%
03:00 +1°C° 0 mm 6 mps 752 mmHg 92%
04:00 +1°C° 0 mm 6 mps 752 mmHg 90%
05:00 +2°C° 0 mm 6 mps 752 mmHg 89%
06:00 +3°C° 0 mm 6 mps 753 mmHg 87%
07:00 +3°C° 0 mm 5 mps 753 mmHg 85%
08:00 +5°C° 0 mm 6 mps 754 mmHg 77%
09:00 +7°C° 0 mm 6 mps 754 mmHg 69%
10:00 +8°C° 0 mm 7 mps 754 mmHg 60%
11:00 +9°C° 0 mm 6 mps 754 mmHg 56%
12:00 +10°C° 0 mm 6 mps 754 mmHg 52%
13:00 +10°C° 0 mm 6 mps 754 mmHg 48%
14:00 +11°C° 0 mm 6 mps 754 mmHg 49%
15:00 +12°C° 0 mm 5 mps 754 mmHg 49%
16:00 +12°C° 0 mm 5 mps 754 mmHg 49%
17:00 +10°C° 0.1 mm 4 mps 754 mmHg 56%
18:00 +9°C° 0.1 mm 2 mps 754 mmHg 63%
19:00 +8°C° 0.1 mm 1 mps 754 mmHg 70%
20:00 +7°C° 0 mm 2 mps 755 mmHg 70%
21:00 +6°C° 0 mm 2 mps 755 mmHg 71%
22:00 +6°C° 0 mm 2 mps 755 mmHg 71%
23:00 +4°C° 0 mm 3 mps 755 mmHg 74%

Day after tomorrow, 9 May, Sunday

Time Temperature Precipitation Wind Pressure Humidity
00:00 +4°C° 0 mm 3 mps 755 mmHg 76%
01:00 +3°C° 0 mm 3 mps 755 mmHg 79%
02:00 +3°C° 0 mm 3 mps 755 mmHg 80%
03:00 +3°C° 0 mm 4 mps 754 mmHg 80%
04:00 +3°C° 0 mm 4 mps 754 mmHg 81%
05:00 +5°C° 0 mm 4 mps 754 mmHg 78%
06:00 +7°C° 0 mm 5 mps 754 mmHg 74%
07:00 +8°C° 0 mm 5 mps 754 mmHg 71%
08:00 +10°C° 0 mm 6 mps 754 mmHg 67%
09:00 +13°C° 0 mm 6 mps 753 mmHg 63%
10:00 +15°C° 0 mm 6 mps 753 mmHg 59%
11:00 +16°C° 0 mm 6 mps 753 mmHg 57%
12:00 +17°C° 0 mm 6 mps 753 mmHg 54%
13:00 +19°C° 0 mm 6 mps 753 mmHg 52%
14:00 +19°C° 0 mm 6 mps 752 mmHg 55%
15:00 +20°C° 0 mm 5 mps 752 mmHg 59%
16:00 +20°C° 0 mm 5 mps 752 mmHg 63%
17:00 +17°C° 0 mm 5 mps 752 mmHg 67%
18:00 +16°C° 0 mm 5 mps 752 mmHg 71%
19:00 +14°C° 0 mm 5 mps 752 mmHg 76%
20:00 +13°C° 0 mm 5 mps 752 mmHg 73%
21:00 +13°C° 0 mm 5 mps 752 mmHg 71%
22:00 +12°C° 0 mm 5 mps 752 mmHg 69%
23:00 +10°C° 0 mm 5 mps 752 mmHg 70%

10 May, Monday

Time Temperature Precipitation Wind Pressure Humidity
00:00 +10°C° 0 mm 5 mps 752 mmHg 71%
01:00 +10°C° 0 mm 4 mps 752 mmHg 72%
02:00 +10°C° 0 mm 4 mps 752 mmHg 75%
03:00 +8°C° 0 mm 4 mps 752 mmHg 77%
04:00 +8°C° 0 mm 4 mps 751 mmHg 80%
05:00 +9°C° 0 mm 5 mps 751 mmHg 77%
06:00 +12°C° 0 mm 5 mps 751 mmHg 75%
07:00 +13°C° 0 mm 6 mps 751 mmHg 73%
08:00 +15°C° 0 mm 6 mps 751 mmHg 68%
09:00 +17°C° 0 mm 6 mps 751 mmHg 63%
10:00 +20°C° 0 mm 7 mps 751 mmHg 58%
11:00 +21°C° 0 mm 7 mps 751 mmHg 57%
12:00 +21°C° 0 mm 7 mps 751 mmHg 57%
13:00 +22°C° 0 mm 7 mps 751 mmHg 56%
14:00 +22°C° 0 mm 7 mps 751 mmHg 59%
15:00 +22°C° 0 mm 7 mps 751 mmHg 61%
16:00 +23°C° 0 mm 6 mps 751 mmHg 64%
17:00 +21°C° 0 mm 5 mps 751 mmHg 70%
18:00 +19°C° 0 mm 4 mps 751 mmHg 76%
19:00 +18°C° 0 mm 3 mps 751 mmHg 83%
20:00 +17°C° 0 mm 3 mps 751 mmHg 85%
21:00 +16°C° 0 mm 3 mps 751 mmHg 88%
22:00 +14°C° 0 mm 3 mps 751 mmHg 90%
23:00 +13°C° 0 mm 3 mps 751 mmHg 90%

11 May, Tuesday

Time Temperature Precipitation Wind Pressure Humidity
00:00 +13°C° 0 mm 4 mps 750 mmHg 90%
01:00 +13°C° 0 mm 4 mps 750 mmHg 89%
02:00 +13°C° 0 mm 4 mps 750 mmHg 88%
03:00 +13°C° 0 mm 4 mps 749 mmHg 87%
04:00 +13°C° 0 mm 4 mps 749 mmHg 87%
05:00 +14°C° 0 mm 5 mps 749 mmHg 84%
06:00 +15°C° 0 mm 5 mps 749 mmHg 81%
07:00 +16°C° 0 mm 6 mps 749 mmHg 78%
08:00 +19°C° 0 mm 6 mps 749 mmHg 73%
09:00 +21°C° 0 mm 7 mps 749 mmHg 67%
10:00 +22°C° 0 mm 7 mps 748 mmHg 62%
11:00 +23°C° 0 mm 7 mps 748 mmHg 61%
12:00 +24°C° 0 mm 7 mps 748 mmHg 59%
13:00 +26°C° 0 mm 7 mps 748 mmHg 58%
14:00 +26°C° 0 mm 7 mps 748 mmHg 60%
15:00 +26°C° 0 mm 6 mps 747 mmHg 62%
16:00 +26°C° 0 mm 6 mps 747 mmHg 64%
17:00 +23°C° 0 mm 5 mps 747 mmHg 69%
18:00 +22°C° 0 mm 4 mps 747 mmHg 74%
19:00 +20°C° 0 mm 3 mps 747 mmHg 79%
20:00 +19°C° 0 mm 4 mps 747 mmHg 82%
21:00 +18°C° 0 mm 4 mps 747 mmHg 84%
22:00 +17°C° 0 mm 4 mps 747 mmHg 86%
23:00 +16°C° 0 mm 5 mps 747 mmHg 85%

12 May, Wednesday

Time Temperature Precipitation Wind Pressure Humidity
00:00 +15°C° 0 mm 5 mps 746 mmHg 85%
01:00 +15°C° 0 mm 5 mps 746 mmHg 84%
02:00 +14°C° 0 mm 5 mps 746 mmHg 84%
03:00 +13°C° 0 mm 5 mps 746 mmHg 84%
04:00 +13°C° 0 mm 5 mps 746 mmHg 84%
05:00 +14°C° 0 mm 6 mps 745 mmHg 83%
06:00 +15°C° 0 mm 6 mps 745 mmHg 81%
07:00 +16°C° 0 mm 6 mps 745 mmHg 79%
08:00 +17°C° 0 mm 6 mps 745 mmHg 75%
09:00 +20°C° 0 mm 6 mps 745 mmHg 70%
10:00 +22°C° 0 mm 6 mps 745 mmHg 66%
11:00 +22°C° 0 mm 6 mps 745 mmHg 63%
12:00 +23°C° 0 mm 6 mps 745 mmHg 61%
13:00 +24°C° 0 mm 6 mps 744 mmHg 58%
14:00 +24°C° 0 mm 6 mps 744 mmHg 60%
15:00 +24°C° 0 mm 7 mps 744 mmHg 61%
16:00 +24°C° 0 mm 7 mps 743 mmHg 63%
17:00 +22°C° 0 mm 7 mps 743 mmHg 66%
18:00 +21°C° 0 mm 7 mps 743 mmHg 69%
19:00 +20°C° 0 mm 8 mps 743 mmHg 73%
20:00 +18°C° 0 mm 7 mps 743 mmHg 73%
21:00 +17°C° 0 mm 7 mps 743 mmHg 73%
22:00 +16°C° 0 mm 6 mps 743 mmHg 74%
23:00 +15°C° 0 mm 6 mps 743 mmHg 77%
Show more